Theta_e
328 331 339 339 341 336 336 336 334 331 331 329 327 327 325 324 324 325 326 326 325 325 328 330 327 319 314 313 317 320 316 316 319 319 322 321 318 315 317 315 314 309 312 323 326 329 325 316 317
333 337 336 337 338 338 337 334 332 331 330 327 326 325 325 325 322 322 323 326 326 326 329 327 327 317 314 313 315 315 315 316 319 320 323 325 325 318 322 322 320 316 313 325 326 328 329 319 319
334 334 335 339 338 337 335 333 331 331 328 327 327 325 324 325 323 322 325 326 325 325 324 324 322 317 314 314 314 315 316 317 319 319 321 324 324 325 325 323 323 322 324 324 325 327 328 326 321
333 334 334 334 335 335 334 332 330 329 328 326 326 326 325 325 324 324 325 324 323 322 322 322 320 318 315 315 315 317 318 319 320 319 318 320 320 321 325 325 325 324 324 325 326 326 329 329 322
332 332 335 336 336 334 333 331 329 328 328 326 325 326 325 326 325 324 324 323 322 322 322 322 322 318 315 315 315 319 317 317 316 317 319 319 321 324 323 323 325 326 325 323 324 324 326 329 328
331 331 334 335 333 334 333 329 328 327 327 326 325 325 325 327 325 324 323 323 322 322 323 322 322 321 318 314 314 315 315 316 315 317 319 321 321 320 320 320 323 325 326 323 323 320 321 328 329
332 333 335 334 333 333 332 329 328 327 327 327 325 325 325 326 324 324 323 322 322 321 322 322 322 322 321 322 322 319 316 318 320 320 320 320 320 320 322 321 321 325 325 324 323 318 316 323 329
330 333 334 333 333 333 332 330 329 327 328 325 324 324 324 326 325 323 322 322 322 322 321 322 321 321 324 326 326 325 323 321 320 318 317 317 319 320 321 322 321 323 324 324 321 316 311 316 326
330 331 332 331 331 332 331 331 330 327 326 325 324 324 324 325 323 322 322 322 322 322 322 321 321 325 328 327 326 325 326 324 322 322 322 319 323 324 324 324 324 324 324 320 324 322 317 309 318
330 331 330 329 329 330 330 330 329 329 327 326 324 324 323 323 322 323 323 322 322 322 323 320 323 328 328 326 326 326 325 325 325 321 321 321 324 324 323 324 324 324 324 323 323 323 321 311 326
330 330 328 327 326 328 329 328 328 328 327 326 325 323 324 323 323 323 323 322 323 323 321 322 327 329 328 327 326 325 325 325 324 323 323 321 324 323 323 323 323 322 324 324 324 323 322 322 326
330 329 327 325 325 329 328 328 327 326 326 325 323 322 324 323 323 324 323 323 323 323 321 326 328 329 329 327 326 326 326 325 326 324 324 322 324 322 322 323 323 323 324 325 326 326 324 323 327
330 329 327 325 326 328 327 327 327 326 324 324 323 322 322 323 324 324 323 324 324 322 324 327 328 329 328 327 326 326 325 326 326 325 325 325 323 323 324 323 322 321 323 324 325 326 324 325 330
328 329 327 326 327 328 326 327 325 326 324 323 324 323 323 323 324 324 324 324 325 321 326 327 328 328 327 326 327 326 325 326 326 325 324 322 324 321 320 321 321 322 324 327 326 328 326 327 327
328 328 327 327 327 328 326 327 327 325 325 324 324 324 323 323 324 324 325 325 324 322 326 327 326 327 327 326 328 326 326 327 327 326 326 326 326 322 322 320 321 323 323 325 325 326 327 327 327
328 328 329 328 328 327 326 328 329 326 325 325 325 325 324 324 324 323 324 325 324 323 324 326 327 327 327 328 328 327 327 326 325 326 326 326 326 324 324 323 320 322 324 326 326 328 328 326 329
329 329 328 329 329 328 327 328 328 326 325 325 325 325 325 324 324 324 324 326 325 323 324 326 328 328 327 329 329 328 328 327 323 323 321 322 323 325 324 324 323 322 321 323 326 326 327 329 330
330 330 329 329 330 330 328 328 329 327 326 325 325 326 326 325 324 324 325 325 324 323 324 327 327 329 324 330 329 329 327 325 324 324 322 321 324 325 325 323 324 323 323 322 326 326 327 328 329
329 330 330 330 330 329 329 329 329 327 326 326 325 326 326 326 324 325 325 326 325 323 324 328 327 328 329 330 330 329 328 327 328 324 324 323 324 327 324 325 325 324 324 324 325 327 328 327 329
330 330 329 330 330 329 330 329 328 327 326 326 326 326 327 327 325 325 326 326 326 324 323 327 328 329 331 328 329 329 330 328 325 325 326 326 326 326 323 327 327 327 324 325 326 327 328 328 326
330 330 329 330 330 330 329 329 328 328 327 325 325 326 327 327 326 325 326 327 326 324 324 326 329 331 332 330 330 328 329 327 327 326 326 326 326 327 327 327 326 328 326 324 325 326 327 328 325
330 329 329 329 330 330 328 329 328 328 327 326 326 326 327 328 327 326 326 327 326 324 325 327 330 331 332 327 330 330 329 328 326 325 326 326 326 326 327 329 328 327 325 326 325 326 327 328 327
329 328 328 328 329 329 328 329 328 327 326 326 326 326 328 328 327 326 326 327 325 323 325 327 329 330 332 331 330 331 328 327 327 325 324 326 326 326 327 327 329 327 325 326 326 326 327 328 329
329 328 327 328 328 330 328 329 328 327 326 325 326 327 329 328 327 326 326 326 324 323 325 327 329 328 331 331 329 330 328 327 326 325 325 327 326 326 327 328 327 328 327 327 326 326 327 329 330
328 328 329 330 331 330 328 328 328 327 325 325 327 328 331 328 327 326 326 325 323 323 324 327 328 327 329 330 329 329 330 328 325 325 324 325 327 329 326 327 328 328 327 326 326 327 327 328 330
328 328 328 330 331 331 329 329 328 327 325 325 328 331 331 328 326 326 326 325 323 324 323 325 326 326 328 328 329 328 330 328 327 324 325 326 327 327 327 327 328 328 328 327 325 325 329 331 330
328 328 327 329 329 329 330 330 328 326 325 327 330 330 330 327 326 326 326 325 322 323 323 325 325 326 326 327 328 327 330 329 326 324 326 325 328 328 327 327 324 326 328 327 326 327 330 330 331
327 327 328 328 330 332 330 329 328 326 326 330 332 331 329 326 326 326 326 325 322 323 325 325 325 324 325 326 326 326 329 331 326 325 326 325 324 326 326 328 328 327 328 328 329 329 329 329 329
326 327 328 329 329 330 331 330 329 328 327 328 332 331 328 326 326 326 326 325 322 322 324 326 326 323 325 325 326 325 327 328 327 328 324 327 325 325 325 325 326 328 328 328 329 329 328 329 328
327 327 329 329 330 329 330 330 328 327 327 328 331 331 328 326 326 326 326 325 322 323 324 325 326 322 322 324 325 324 326 328 329 330 328 327 327 326 326 327 327 328 328 328 328 327 327 327 327
Wind_Speed
9 7 3 8 7 8 13 2 6 10 3 5 4 7 12 11 8 4 4 3 1 1 3 9 11 12 15 17 18 19 18 17 20 20 20 20 19 17 16 17 18 16 14 12 12 12 13 16 18
7 5 5 13 8 13 2 9 8 10 10 1 2 4 5 4 5 2 2 2 3 3 4 5 13 15 17 15 15 18 19 21 22 22 21 21 21 22 18 15 17 18 16 14 14 13 13 15 17
9 6 13 12 13 14 11 10 11 9 1 6 4 1 5 7 2 2 1 2 4 5 6 8 15 18 18 16 17 20 22 24 24 24 25 23 23 22 23 21 18 18 17 16 15 15 15 15 17
6 9 12 9 19 6 5 12 10 10 5 4 5 7 4 4 3 1 3 3 5 6 8 13 18 21 19 19 20 22 22 25 25 26 27 27 26 26 24 24 22 20 17 19 17 17 14 14 16
9 12 11 16 17 9 3 8 10 9 7 1 2 6 1 5 4 3 3 4 5 7 8 10 17 20 18 20 21 24 25 26 27 28 28 29 28 27 27 26 24 23 19 20 20 19 19 16 15
14 16 13 15 7 6 3 5 9 11 7 2 4 7 2 8 4 4 5 5 5 5 7 8 13 18 18 18 20 23 25 27 28 29 30 31 31 32 32 30 28 25 22 20 20 21 19 18 17
16 12 16 17 17 12 3 5 11 11 13 8 3 7 0 5 6 7 6 5 4 4 7 10 12 14 19 19 20 20 23 25 27 29 32 35 35 34 32 29 28 27 24 21 22 21 19 21 16
19 12 18 16 11 12 9 2 14 8 9 5 4 5 8 5 8 6 5 6 6 8 9 12 12 13 14 12 18 24 19 22 25 26 28 28 26 25 25 25 27 27 24 21 23 22 21 19 20
13 13 14 18 16 11 9 13 5 3 12 6 6 8 3 5 8 8 7 8 7 10 11 12 12 12 12 12 14 18 18 21 18 17 17 16 14 14 16 17 20 25 24 22 21 19 19 21 22
17 13 19 14 14 12 19 19 19 8 11 9 10 9 6 8 9 10 9 8 8 10 11 11 11 12 11 11 12 15 16 17 15 14 12 14 14 15 15 18 19 19 24 27 22 18 17 23 14
21 16 18 16 20 14 17 18 7 9 10 9 5 8 13 12 12 12 10 7 7 8 9 10 10 10 10 10 13 12 11 15 15 16 14 11 11 14 13 15 17 22 19 25 24 18 15 17 14
20 21 22 20 22 13 14 9 10 9 12 7 7 7 10 13 14 13 11 8 6 7 8 9 9 10 10 11 10 11 14 13 11 12 10 10 11 12 13 13 15 18 21 19 20 18 14 17 16
17 18 25 23 19 16 14 11 11 13 10 6 7 9 12 14 15 13 11 8 5 6 7 8 9 9 10 12 8 13 14 9 9 10 11 12 8 12 9 12 15 21 23 20 19 17 16 15 17
25 25 20 19 18 16 11 17 3 12 5 8 11 12 13 16 16 14 11 8 6 5 6 8 8 9 10 14 14 13 11 9 9 9 10 9 11 9 8 7 10 21 21 20 17 17 17 17 20
24 18 19 19 18 15 12 15 16 18 8 10 13 15 16 16 16 16 12 10 6 4 5 7 8 9 12 14 13 11 11 10 9 9 9 10 10 9 6 3 6 15 21 19 17 17 16 19 19
19 21 19 20 18 17 10 18 14 14 11 14 16 16 16 16 17 15 12 10 6 4 5 6 6 8 11 11 11 11 10 11 8 9 9 9 11 10 7 4 6 14 17 18 19 17 17 19 18
18 16 21 19 14 16 16 19 17 13 14 15 17 16 16 17 17 16 13 11 6 4 5 5 6 8 11 9 10 10 8 9 9 11 10 11 11 10 9 7 9 11 15 22 19 19 18 20 17
19 22 17 17 14 13 16 19 17 14 18 18 18 17 16 19 19 17 15 11 7 4 5 4 5 8 12 11 9 9 9 8 8 8 10 12 9 8 8 6 7 12 14 19 22 21 21 21 17
23 18 17 11 9 13 13 17 20 17 18 20 19 15 16 18 17 18 16 13 9 5 4 3 4 8 8 10 9 9 9 7 10 9 9 10 8 6 6 6 7 9 12 17 22 23 22 22 20
23 21 16 15 13 9 13 19 20 19 19 19 17 12 14 16 18 19 17 14 10 6 4 2 3 5 6 8 8 6 5 7 12 11 9 6 7 7 7 8 9 10 12 16 20 23 23 23 21
23 21 17 18 12 9 14 23 20 7 11 12 11 11 12 17 20 20 18 15 10 7 5 3 1 3 6 8 10 7 4 7 9 14 15 7 5 4 7 8 11 12 13 15 18 21 21 22 25
22 19 18 14 13 13 14 14 15 17 7 10 14 15 12 15 19 20 18 16 12 8 7 4 2 2 4 7 7 9 7 5 7 13 14 11 7 6 6 9 9 12 17 18 20 22 21 22 24
20 18 17 14 15 18 19 11 14 10 10 7 5 5 10 15 20 21 19 16 12 10 8 6 3 2 3 6 8 9 7 8 4 7 13 11 8 5 7 8 12 12 15 18 20 22 24 23 23
20 17 17 11 11 15 19 14 15 10 3 3 5 4 8 14 19 20 19 16 13 10 9 7 4 3 0 4 6 9 10 12 4 6 9 11 9 8 7 9 11 14 16 19 20 23 24 22 23
23 14 11 13 13 14 17 12 9 13 4 3 5 6 8 13 20 22 21 18 15 13 11 8 6 3 1 2 5 8 10 12 11 11 11 11 11 11 8 12 15 15 17 19 21 21 20 27 21
22 19 13 15 14 14 11 7 3 5 5 4 3 4 7 15 21 22 21 17 15 14 12 9 8 5 3 2 4 8 10 11 11 11 10 12 13 14 12 13 16 15 18 19 21 23 26 20 24
19 20 20 22 19 13 6 8 9 7 8 8 2 2 11 19 22 21 20 17 15 15 13 10 8 7 5 2 4 6 8 13 14 11 10 15 16 11 13 16 13 14 17 20 21 22 20 21 23
23 18 19 15 19 17 13 11 4 11 10 8 7 8 17 20 21 20 20 17 16 15 13 11 9 7 6 4 4 5 7 7 10 10 10 11 15 16 15 16 15 15 16 18 20 18 19 19 20
21 21 17 15 14 13 11 8 8 6 5 2 8 13 20 22 22 21 20 18 17 15 14 12 10 8 8 6 6 7 7 8 9 10 10 12 16 14 14 13 12 13 17 16 18 19 18 18 17
26 26 22 11 18 12 12 3 11 7 5 7 4 13 20 22 22 21 20 19 18 17 15 13 11 9 9 8 7 7 8 8 8 10 12 15 16 13 17 15 17 20 16 17 15 15 15 14 14
Wind_Direction
144 137 116 244 244 226 262 62 26 291 206 87 349 321 346 326 344 2 119 141 67 178 198 288 290 303 309 303 293 287 287 289 288 286 284 288 294 294 294 288 285 281 271 263 250 265 261 234 227
161 182 233 270 257 268 43 26 341 358 6 359 259 267 264 16 19 8 278 198 210 246 263 245 266 294 307 297 281 277 278 281 281 284 282 283 285 292 289 292 289 278 270 262 249 245 254 241 228
170 212 272 247 246 270 339 19 358 357 304 243 239 217 350 53 89 3 186 179 224 257 275 276 284 299 302 293 279 273 270 275 277 279 280 281 281 281 285 288 282 280 262 258 255 241 242 251 232
186 223 245 255 279 298 349 330 346 311 173 241 319 297 127 122 125 174 203 223 257 280 286 285 285 293 289 275 275 270 272 276 274 275 276 276 276 276 277 275 275 275 261 246 241 246 236 235 239
229 261 264 258 263 304 326 319 334 300 297 289 185 303 292 150 167 184 225 231 266 286 280 293 286 293 287 276 270 263 270 275 278 278 275 274 273 272 273 272 268 262 262 244 237 234 229 235 231
233 234 272 268 292 228 276 13 309 290 293 233 280 304 335 141 164 213 225 239 251 273 291 300 299 302 297 288 276 272 273 273 277 279 278 276 275 276 273 268 262 256 249 242 237 229 229 229 229
250 268 267 285 295 300 2 26 291 323 305 313 1 301 316 188 189 205 214 234 257 291 309 307 302 294 313 307 300 286 275 275 277 277 277 276 274 272 271 265 257 252 243 236 234 232 228 228 229
248 267 273 274 281 283 284 253 278 278 325 334 296 272 339 157 186 205 222 247 291 306 308 305 304 298 295 291 294 295 291 285 285 286 286 282 277 272 267 267 256 247 242 233 232 233 227 226 228
245 262 264 272 287 307 308 281 275 229 282 230 268 282 312 177 194 217 228 258 279 301 306 309 298 297 295 294 292 294 309 302 305 303 299 293 286 265 254 259 249 243 235 223 224 229 229 224 227
238 250 262 293 310 305 298 301 304 284 252 233 235 243 229 212 215 228 233 264 292 303 303 310 296 297 301 305 296 293 292 284 284 291 275 283 279 268 255 241 247 237 228 218 223 224 227 217 224
227 250 274 291 287 293 311 290 294 274 278 307 286 266 204 216 224 233 247 259 293 304 310 301 299 299 301 299 292 290 275 289 282 284 294 293 281 278 264 249 243 238 226 222 221 225 223 214 213
240 243 273 268 274 276 277 309 293 282 279 312 285 275 219 223 227 232 239 245 279 297 310 304 299 303 303 298 294 283 286 295 284 297 295 287 282 268 262 247 234 226 217 223 204 204 217 204 206
240 249 254 269 255 265 269 275 277 295 303 271 261 244 233 228 229 227 228 230 261 298 299 304 305 306 308 303 298 284 282 284 285 287 277 272 261 269 264 254 229 220 208 215 196 193 195 202 202
237 242 258 263 245 258 242 264 222 281 257 247 251 248 237 231 225 220 222 226 248 282 296 301 309 318 311 302 291 292 295 292 294 282 274 269 277 277 284 271 225 202 192 193 194 198 195 200 207
252 258 260 255 254 247 232 260 248 258 223 255 243 242 237 228 221 220 221 222 236 275 289 302 322 323 317 310 303 293 298 286 271 278 287 281 276 285 283 280 193 184 180 185 189 181 190 199 180
248 246 253 246 216 229 218 261 263 251 242 252 252 238 240 227 221 218 214 213 227 258 279 304 315 328 310 309 304 299 270 282 276 270 267 267 268 270 276 241 185 184 186 178 181 186 184 176 176
224 243 242 255 173 228 206 261 291 285 283 269 263 255 237 225 221 214 211 211 217 245 265 299 311 320 314 316 307 310 299 287 287 285 280 270 252 260 270 239 197 186 185 179 177 180 179 171 167
224 228 231 261 212 211 252 258 261 272 279 269 246 254 233 222 216 212 208 206 208 232 259 292 320 312 327 330 330 326 323 310 290 283 278 268 260 244 247 228 189 177 180 174 169 176 180 164 167
246 257 253 243 247 250 276 277 285 283 272 272 254 248 237 220 213 206 205 202 204 223 250 280 305 313 342 341 355 345 342 346 334 330 304 256 237 237 220 177 172 163 173 171 172 169 165 160 168
241 252 255 262 259 268 289 283 290 282 276 268 249 245 228 210 203 199 199 198 200 210 224 247 304 325 352 336 352 6 348 16 44 32 19 58 171 201 188 181 168 172 166 164 165 164 161 162 166
228 242 244 260 271 243 271 268 258 257 272 248 239 255 226 205 199 195 195 197 197 200 199 197 263 18 356 12 0 10 356 7 32 45 42 64 144 176 180 174 176 173 167 164 164 164 164 155 163
228 227 247 269 275 266 274 284 294 273 264 256 236 208 213 193 195 194 193 193 193 195 183 180 188 64 353 16 357 354 18 1 39 44 35 50 120 151 182 186 185 170 174 174 174 168 164 161 162
233 235 239 229 252 270 264 264 273 267 221 251 249 264 163 183 189 189 190 189 188 186 181 182 173 96 14 4 14 13 23 30 70 41 32 39 94 79 136 160 184 184 176 175 172 169 162 160 165
225 227 254 265 259 257 257 253 266 271 128 303 301 194 175 182 182 182 182 182 181 182 182 183 177 135 64 5 18 22 22 23 64 72 52 65 68 81 120 142 153 164 165 168 165 162 161 162 151
220 210 229 230 233 248 247 237 284 298 310 327 329 315 157 175 177 176 177 179 180 182 183 177 173 162 134 36 35 21 13 11 69 99 79 70 59 58 105 139 135 138 147 153 155 158 163 157 158
205 211 224 219 234 247 141 227 263 217 60 264 284 324 157 174 173 176 177 178 183 183 184 178 174 178 161 78 50 37 34 43 73 103 67 52 63 51 118 120 129 123 136 141 143 148 155 150 148
189 214 225 253 284 289 216 212 198 192 212 199 175 186 162 167 170 175 176 180 182 183 182 178 173 179 174 148 88 66 59 78 84 72 57 66 68 67 88 111 112 122 125 135 146 148 147 149 153
220 200 217 229 246 261 245 235 244 166 211 117 151 168 162 166 170 177 179 181 182 182 183 180 176 180 178 158 120 105 84 85 75 72 71 62 69 86 99 111 111 117 127 140 150 151 152 148 148
203 224 204 244 224 237 248 260 119 152 159 323 147 163 173 173 174 178 181 182 182 181 183 182 181 180 179 163 146 128 107 100 93 76 81 94 82 87 104 112 117 118 123 134 142 148 143 143 147
214 210 207 216 222 249 274 245 112 161 205 184 196 159 180 181 178 178 180 183 182 182 184 182 182 183 183 170 159 140 127 117 101 94 93 104 104 83 94 101 110 130 119 124 137 151 152 161 152